Location: *
(46.1200°N, 11.2700°E)
Time: 13:12:15
(UTC+00:00)

COSMO-SKYMED 1 - Pass Details

Date: 02 March 2021
Orbit: 621 x 623 km, 97.9° (Epoch: 23 April)

Event Time Altitude Azimuth Distance (km) Brightness Sun altitude
Rises 17:25:12 0° 13° (NNE) 2,917 5.8 -4.7°
Reaches altitude 10° 17:27:25 10° 14° (NNE) 2,006 5.0 -5.1°
Maximum altitude 17:31:47 87° 100° (E) 631 2.6 -5.8°
Drops below altitude 10° 17:36:07 10° 193° (SSW) 1,988 5.4 -6.6°
Sets 17:38:18 0° 194° (SSW) 2,890 6.2 -6.9°
